Hiyodori — JD2366 — position and weather

sailwx.info

Track history (hours):
 
Tides and Currents Weather Stations Pressure Air Temp Water Temp Dewpoint Dewpoint Depression Visibility Wind Speed Wind Dir Waves Ship Positions

Hiyodori

Last reported at 2017-Oct-16 21:59 UTC. Time now 2017-Oct-16 22:20 UTC.
Position N 35°09' E 139°46'.

Length 88 m; draft 3.6 m.

Type: Cargo ship. MMSI: 431000132.

Date/timePositionNaut miles runAvg speedWind from/ knotsBaromVisibWave heightAir tempDewpointWater temp
2017-Oct-16 21:59N 35°09' E 139°46'510.1
2017-Oct-16 21:29N 35°04' E 139°44'510.0
2017-Oct-16 21:00N 35°01' E 139°40'510.7
2017-Oct-16 20:30N 34°58' E 139°34'  
2017-Oct-14 11:56N 34°54' E 139°23'410.5
2017-Oct-14 11:30N 34°56' E 139°27'510.4
2017-Oct-14 11:00N 35°00' E 139°32'611.8
2017-Oct-14 10:30N 35°04' E 139°37'713.2
2017-Oct-14 10:00N 35°08' E 139°43'613.1
2017-Oct-14 09:30N 35°14' E 139°46'612.5
2017-Oct-14 09:00N 35°20' E 139°42'4 8.9
2017-Oct-14 08:31N 35°24' E 139°41'0 0.1
2017-Oct-14 08:00N 35°24' E 139°41'0 0.1
2017-Oct-14 07:30N 35°24' E 139°41'0 0.0
2017-Oct-14 07:00N 35°24' E 139°41'0 0.0
2017-Oct-14 06:30N 35°24' E 139°41'0 0.0
2017-Oct-14 06:00N 35°24' E 139°41'0 0.7
2017-Oct-14 05:30N 35°24' E 139°41'4 8.2
2017-Oct-14 05:00N 35°20' E 139°43'510.6
2017-Oct-14 04:30N 35°16' E 139°47'510.1
2017-Oct-14 04:00N 35°11' E 139°46'510.2
2017-Oct-14 03:30N 35°06' E 139°45'5 9.7
2017-Oct-14 03:00N 35°02' E 139°41'510.6
2017-Oct-14 02:30N 34°59' E 139°35'11 0.3
2017-Oct-12 05:47N 34°54' E 139°24'2 8.4
2017-Oct-12 05:30N 34°55' E 139°26'5 9.1
2017-Oct-12 05:00N 34°58' E 139°30'510.1
2017-Oct-12 04:30N 35°02' E 139°35'510.4
2017-Oct-12 04:00N 35°05' E 139°39'510.8
2017-Oct-12 03:30N 35°09' E 139°44'4 8.5
2017-Oct-12 03:00N 35°13' E 139°46'611.5
2017-Oct-12 02:31N 35°18' E 139°44'611.5
2017-Oct-12 02:01N 35°24' E 139°42'611.9
2017-Oct-12 01:30N 35°28' E 139°47'7 9.4
2017-Oct-12 00:48N 35°35' E 139°48'17 0.7
2017-Oct-11 00:00N 35°17' E 139°45'611.2
2017-Oct-10 23:30N 35°12' E 139°47'612.5
2017-Oct-10 23:00N 35°06' E 139°45'613.0
2017-Oct-10 22:30N 35°02' E 139°39'812.8
2017-Oct-10 21:55N 34°57' E 139°31'  
2017-Oct-08 08:18N 34°56' E 139°22'411.6
2017-Oct-08 08:00N 34°58' E 139°25'611.3
2017-Oct-08 07:30N 35°01' E 139°31'611.6
2017-Oct-08 07:00N 35°04' E 139°37'612.3
2017-Oct-08 06:30N 35°08' E 139°43'612.2
2017-Oct-08 06:00N 35°13' E 139°46'611.4
2017-Oct-08 05:30N 35°18' E 139°44'611.1
2017-Oct-08 05:00N 35°23' E 139°41'1 1.4
2017-Oct-08 04:29N 35°24' E 139°41'0 0.0
2017-Oct-08 03:59N 35°24' E 139°41'2 4.9
2017-Oct-08 03:30N 35°23' E 139°43'1 1.8
2017-Oct-08 02:59N 35°22' E 139°44'0 0.0
2017-Oct-08 02:29N 35°22' E 139°44'0 0.0
2017-Oct-08 01:59N 35°22' E 139°44'0 0.0
2017-Oct-08 01:29N 35°22' E 139°44'0 0.0
2017-Oct-08 00:59N 35°22' E 139°44'0 0.1
2017-Oct-08 00:29N 35°22' E 139°44'0 0.0
2017-Oct-07 23:59N 35°22' E 139°44'0 0.0
2017-Oct-07 23:29N 35°22' E 139°44'0 0.0
2017-Oct-07 22:59N 35°22' E 139°44'0 0.0
2017-Oct-07 22:29N 35°22' E 139°44'0 0.0
2017-Oct-07 21:59N 35°22' E 139°44'0 0.0
2017-Oct-07 21:29N 35°22' E 139°44'0 0.1
2017-Oct-07 20:59N 35°22' E 139°44'0 0.0
2017-Oct-07 20:29N 35°22' E 139°44'0 0.1
2017-Oct-07 20:00N 35°22' E 139°44'5 9.8
2017-Oct-07 19:30N 35°17' E 139°45'611.7
2017-Oct-07 19:00N 35°12' E 139°47'611.1
2017-Oct-07 18:30N 35°06' E 139°45'510.9
2017-Oct-07 18:00N 35°02' E 139°41'611.5
2017-Oct-07 17:30N 34°59' E 139°35'  
Track history (hours):
 
Tides and Currents Weather Stations Pressure Air Temp Water Temp Dewpoint Dewpoint Depression Visibility Wind Speed Wind Dir Waves Ship Positions

Hiyodori

Last reported at 2017-Oct-16 21:59 UTC. Time now 2017-Oct-16 22:20 UTC.
Position N 35°09' E 139°46'.

Length 88 m; draft 3.6 m.

Type: Cargo ship. MMSI: 431000132.

Date/timePositionNaut miles runAvg speedWind from/ knotsBaromVisibWave heightAir tempDewpointWater temp
2017-Oct-16 21:59N 35°09' E 139°46'510.1
2017-Oct-16 21:29N 35°04' E 139°44'510.0
2017-Oct-16 21:00N 35°01' E 139°40'510.7
2017-Oct-16 20:30N 34°58' E 139°34'  
2017-Oct-14 11:56N 34°54' E 139°23'410.5
2017-Oct-14 11:30N 34°56' E 139°27'510.4
2017-Oct-14 11:00N 35°00' E 139°32'611.8
2017-Oct-14 10:30N 35°04' E 139°37'713.2
2017-Oct-14 10:00N 35°08' E 139°43'613.1
2017-Oct-14 09:30N 35°14' E 139°46'612.5
2017-Oct-14 09:00N 35°20' E 139°42'4 8.9
2017-Oct-14 08:31N 35°24' E 139°41'0 0.1
2017-Oct-14 08:00N 35°24' E 139°41'0 0.1
2017-Oct-14 07:30N 35°24' E 139°41'0 0.0
2017-Oct-14 07:00N 35°24' E 139°41'0 0.0
2017-Oct-14 06:30N 35°24' E 139°41'0 0.0
2017-Oct-14 06:00N 35°24' E 139°41'0 0.7
2017-Oct-14 05:30N 35°24' E 139°41'4 8.2
2017-Oct-14 05:00N 35°20' E 139°43'510.6
2017-Oct-14 04:30N 35°16' E 139°47'510.1
2017-Oct-14 04:00N 35°11' E 139°46'510.2
2017-Oct-14 03:30N 35°06' E 139°45'5 9.7
2017-Oct-14 03:00N 35°02' E 139°41'510.6
2017-Oct-14 02:30N 34°59' E 139°35'11 0.3
2017-Oct-12 05:47N 34°54' E 139°24'2 8.4
2017-Oct-12 05:30N 34°55' E 139°26'5 9.1
2017-Oct-12 05:00N 34°58' E 139°30'510.1
2017-Oct-12 04:30N 35°02' E 139°35'510.4
2017-Oct-12 04:00N 35°05' E 139°39'510.8
2017-Oct-12 03:30N 35°09' E 139°44'4 8.5
2017-Oct-12 03:00N 35°13' E 139°46'611.5
2017-Oct-12 02:31N 35°18' E 139°44'611.5
2017-Oct-12 02:01N 35°24' E 139°42'611.9
2017-Oct-12 01:30N 35°28' E 139°47'7 9.4
2017-Oct-12 00:48N 35°35' E 139°48'17 0.7
2017-Oct-11 00:00N 35°17' E 139°45'611.2
2017-Oct-10 23:30N 35°12' E 139°47'612.5
2017-Oct-10 23:00N 35°06' E 139°45'613.0
2017-Oct-10 22:30N 35°02' E 139°39'812.8
2017-Oct-10 21:55N 34°57' E 139°31'  
2017-Oct-08 08:18N 34°56' E 139°22'411.6
2017-Oct-08 08:00N 34°58' E 139°25'611.3
2017-Oct-08 07:30N 35°01' E 139°31'611.6
2017-Oct-08 07:00N 35°04' E 139°37'612.3
2017-Oct-08 06:30N 35°08' E 139°43'612.2
2017-Oct-08 06:00N 35°13' E 139°46'611.4
2017-Oct-08 05:30N 35°18' E 139°44'611.1
2017-Oct-08 05:00N 35°23' E 139°41'1 1.4
2017-Oct-08 04:29N 35°24' E 139°41'0 0.0
2017-Oct-08 03:59N 35°24' E 139°41'2 4.9
2017-Oct-08 03:30N 35°23' E 139°43'1 1.8
2017-Oct-08 02:59N 35°22' E 139°44'0 0.0
2017-Oct-08 02:29N 35°22' E 139°44'0 0.0
2017-Oct-08 01:59N 35°22' E 139°44'0 0.0
2017-Oct-08 01:29N 35°22' E 139°44'0 0.0
2017-Oct-08 00:59N 35°22' E 139°44'0 0.1
2017-Oct-08 00:29N 35°22' E 139°44'0 0.0
2017-Oct-07 23:59N 35°22' E 139°44'0 0.0
2017-Oct-07 23:29N 35°22' E 139°44'0 0.0
2017-Oct-07 22:59N 35°22' E 139°44'0 0.0
2017-Oct-07 22:29N 35°22' E 139°44'0 0.0
2017-Oct-07 21:59N 35°22' E 139°44'0 0.0
2017-Oct-07 21:29N 35°22' E 139°44'0 0.1
2017-Oct-07 20:59N 35°22' E 139°44'0 0.0
2017-Oct-07 20:29N 35°22' E 139°44'0 0.1
2017-Oct-07 20:00N 35°22' E 139°44'5 9.8
2017-Oct-07 19:30N 35°17' E 139°45'611.7
2017-Oct-07 19:00N 35°12' E 139°47'611.1
2017-Oct-07 18:30N 35°06' E 139°45'510.9
2017-Oct-07 18:00N 35°02' E 139°41'611.5
2017-Oct-07 17:30N 34°59' E 139°35'  

Dump ship's entire track history